Weather in Chetumal

Mexico     18°30′03″N   88°18′23″W
temp.,
°C
wind,
m/s
gust,
m/s
humid.,
%
clouds,
%
prec.,
mm/h
press.,
hPa
HPBL,
m
24 june, thu
thu2401:00+27e598266 0.1 1015669
04:00+27e478517 0.1 1014632
07:00+27e578234 0.2 1015681
10:00+29e357096 0.1 1016971
13:00+31ese456369 0.4 10151017
16:00+31e566127 0.1 10131043
19:00+29e56733 0.2 1013610
22:00+27e57790 0.0 1014563
25 june, fri
fri2501:00+27e35830 0.0 1013462
04:00+26e24840 0.0 1012380
07:00+26nne23830 0.3 1013245
10:00+29ene23697 0.1 1014723
13:00+29se336786 0.5 1013781
16:00+30se55669 0.4 1010693
19:00+28se68745 0.4 1010708
22:00+27e468167 0.4 1012488
26 june, sat
sat2601:00+26ese2582100 2.8 1012539
04:00+27se468497 0.2 1010538
07:00+26se3583100 0.8 1011435
10:00+28se4575100 0.6 1012862
13:00+29se556698 1.3 1011895
16:00+30se5664100 0.4 1010819
19:00+29ese677579 0.4 1009866
22:00+27ese5882100 0.0 1011642
27 june, sun
sun2701:00+27ese4784100 0.2 1012541
04:00+27ese5883100 0.8 1010639
07:00+27ese478299 0.8 1010592
10:00+29ese4570100 0.1 10121056
13:00+30sse4564100 0.2 1011984
16:00+30se5663100 0.2 1010920
19:00+29e687575 0.2 1010850
22:00+27e6981100 0.1 1012846
28 june, mon
mon2801:00+27ese5882100 0.3 1012718
04:00+27ese5781100 0.2 1011630
07:00+27ese4782100 0.9 1012577
10:00+29ese457496 0.9 1012954
13:00+29ese456799 2.2 1012894
16:00+31ese566497 0.3 10111090
19:00+28e6874100 0.4 1011811
22:00+27e698017 0.0 1013786